DW7262 La Rochelle FR current weather conditions

sailwx.info

Wind from 116

Air temperature 19.4° C
Dewpoint 14.3° C

Last reported at 2014-Oct-30 16:41 UTC.
Time now 2014-Oct-30 17:33 UTC

Location: N 45°57' W 001°22'.
View on Google Maps.

See reports from other nearby stations

  
Tides and Currents Weather Stations Pressure Air Temp Water Temp Dewpoint Dewpoint Depression Visibility Wind Speed Wind Dir Waves Ship Positions
date/time (UTC)wind fromknots sea level pressurealtimeterstation pressurevisibilityair tempwater tempwave heightnotes
2014-Oct-30 16:41 116 19.4
2014-Oct-30 16:31 115 19.4
2014-Oct-30 16:09 109 20.6
2014-Oct-30 15:59 131 20.6
2014-Oct-30 15:49 122 21.1
2014-Oct-30 15:27 088 21.7
2014-Oct-30 15:17 239 21.7
2014-Oct-30 14:55 156 21.7
2014-Oct-30 14:45 119 21.7
2014-Oct-30 14:35 174 21.1
2014-Oct-30 14:25 160 20.6
2014-Oct-30 14:15 207 20.6
2014-Oct-30 14:06 187 0 gusting 5 21.1
2014-Oct-30 13:43 162 21.7
2014-Oct-30 13:21 090 21.7
2014-Oct-30 13:11 156 21.7
2014-Oct-30 12:49 101 0 gusting 5 21.1
2014-Oct-30 12:39 116 1 gusting 6 21.1
2014-Oct-30 12:28 070 3 gusting 6 20.6
2014-Oct-30 12:18 119 1 gusting 8 20.6
2014-Oct-30 12:08 096 2 gusting 8 20.6
2014-Oct-30 10:58 110 3 gusting 9 18.3
2014-Oct-30 10:48 091 1 gusting 8 18.3
2014-Oct-30 10:38 115 1 gusting 7 17.8
2014-Oct-30 10:28 136 0 gusting 6 17.8
2014-Oct-30 10:19 256 1 gusting 8 17.2
2014-Oct-30 10:09 115 1 gusting 9 17.2
2014-Oct-30 09:58 110 1 gusting 11 17.2
2014-Oct-30 09:49 188 2 gusting 11 16.7
2014-Oct-30 09:27 128 2 gusting 10 15.6
2014-Oct-30 09:17 098 3 gusting 10 15.0
2014-Oct-30 09:07 095 1 gusting 7 15.0
2014-Oct-30 08:57 110 1 gusting 5 14.4
2014-Oct-30 08:47 106 0 gusting 3 13.9
2014-Oct-30 08:37 099 13.3
2014-Oct-30 08:26 103 13.3
2014-Oct-30 08:16 089 0 gusting 0 13.3
2014-Oct-30 08:06 082 13.3
2014-Oct-30 07:56 086 13.3
2014-Oct-30 07:22 103 12.8
2014-Oct-30 07:11 140 0 gusting 5 12.8
2014-Oct-30 07:01 115 2 gusting 3 12.8
2014-Oct-29 16:56 100 18.3
2014-Oct-29 16:46 096 18.3
2014-Oct-29 16:36 101 18.9
2014-Oct-29 16:26 106 18.9
2014-Oct-29 16:04 124 18.3
2014-Oct-29 15:54 111 18.3
2014-Oct-29 15:32 107 18.9
2014-Oct-29 14:57 190 20.6
2014-Oct-29 14:47 148 19.4
2014-Oct-29 14:37 111 19.4
2014-Oct-29 14:27 174 19.4
2014-Oct-29 14:17 210 19.4
2014-Oct-29 13:55 184 20.0
2014-Oct-29 13:33 195 21.1
2014-Oct-29 13:23 162 0 gusting 7 21.1
2014-Oct-29 13:13 104 0 gusting 6 20.6
2014-Oct-29 13:03 114 1 gusting 6 20.6
2014-Oct-29 12:52 112 0 gusting 6 20.0
2014-Oct-29 12:43 131 1 gusting 8 19.4
2014-Oct-29 12:33 109 2 gusting 8 19.4
2014-Oct-29 12:23 122 1 gusting 7 19.4
2014-Oct-29 12:14 162 2 gusting 7 18.9
2014-Oct-29 11:51 080 0 gusting 5 18.3
2014-Oct-29 11:41 109 0 gusting 2 18.3
2014-Oct-29 11:32 084 0 gusting 3 17.8
2014-Oct-29 11:22 092 17.8
2014-Oct-29 11:12 097 1 gusting 2 17.2
2014-Oct-29 10:50 139 5 gusting 9 16.1
2014-Oct-29 10:41 128 3 gusting 9 15.6
2014-Oct-29 09:43 107 2 gusting 6 13.9
2014-Oct-29 09:32 107 2 gusting 6 13.3
2014-Oct-29 09:22 117 3 gusting 7 13.3
2014-Oct-29 09:12 105 4 gusting 7 12.8
2014-Oct-29 09:02 099 3 gusting 7 12.8
2014-Oct-29 08:52 082 4 gusting 7 12.8
2014-Oct-29 08:43 087 3 gusting 6 12.2
2014-Oct-29 08:10 085 0 gusting 2 12.2
2014-Oct-29 08:00 122 1 gusting 4 11.7
2014-Oct-29 07:50 121 1 gusting 4 11.7
2014-Oct-29 07:40 101 1 gusting 5 11.7
2014-Oct-29 07:30 089 0 gusting 5 11.7
2014-Oct-29 07:20 122 0 gusting 3 11.7
2014-Oct-29 07:10 101 0 gusting 3 11.1
2014-Oct-28 21:13 079 12.8
2014-Oct-28 20:51 085 11.1
2014-Oct-28 20:29 359 10.6
2014-Oct-28 20:19 359 10.6
2014-Oct-28 20:09 358 11.1
2014-Oct-28 19:47 359 11.1
2014-Oct-28 19:37 358 11.7
2014-Oct-28 19:27 359 11.7
2014-Oct-28 19:05 359 12.2
2014-Oct-28 18:55 359 12.2
2014-Oct-28 18:45 358 12.8
2014-Oct-28 18:35 041 12.8
2014-Oct-28 18:13 043 13.3
2014-Oct-28 17:24 043 15.6
2014-Oct-28 17:03 256 16.1